TimeCST,TemperatureF,Dew PointF,Humidity,Sea Level PressureIn,VisibilityMPH,Wind Direction,Wind SpeedMPH,Gust SpeedMPH,PrecipitationIn,Events,Conditions,WindDirDegrees,DateUTC
12:53 AM,36.0,33.1,89,30.30,10.0,Calm,Calm,-,N/A,,Clear,0,2011-11-11 06:53:00
1:53 AM,36.0,32.0,86,30.29,10.0,Calm,Calm,-,N/A,,Clear,0,2011-11-11 07:53:00
2:53 AM,34.0,32.0,92,30.29,10.0,Calm,Calm,-,N/A,,Clear,0,2011-11-11 08:53:00
3:53 AM,35.1,32.0,89,30.29,10.0,Calm,Calm,-,N/A,,Clear,0,2011-11-11 09:53:00
4:53 AM,33.8,30.2,87,30.27,10.0,Calm,Calm,-,N/A,,Clear,0,2011-11-11 10:53:00
5:53 AM,32.0,30.2,93,30.27,10.0,SE,5.8,-,N/A,,Clear,130,2011-11-11 11:53:00
6:53 AM,33.1,30.9,92,30.30,10.0,SE,3.5,-,N/A,,Clear,140,2011-11-11 12:53:00
8:53 AM,48.0,39.0,71,30.31,10.0,Calm,Calm,-,N/A,,Clear,0,2011-11-11 14:53:00
9:53 AM,57.2,35.6,44,30.29,10.0,SSW,6.9,-,N/A,,Clear,210,2011-11-11 15:53:00
10:53 AM,62.1,32.0,32,30.28,10.0,WSW,4.6,-,N/A,,Clear,240,2011-11-11 16:53:00
11:53 AM,64.0,28.9,27,30.26,10.0,SSW,6.9,-,N/A,,Clear,210,2011-11-11 17:53:00
12:53 PM,66.2,30.2,26,30.21,10.0,SSW,12.7,18.4,N/A,,Clear,200,2011-11-11 18:53:00
1:53 PM,66.9,30.0,25,30.19,10.0,South,13.8,-,N/A,,Clear,180,2011-11-11 19:53:00
2:53 PM,68.0,30.9,25,30.19,10.0,SSW,9.2,17.3,N/A,,Clear,210,2011-11-11 20:53:00
3:53 PM,66.0,32.0,28,30.19,10.0,South,8.1,-,N/A,,Clear,170,2011-11-11 21:53:00
4:53 PM,63.0,32.0,31,30.18,10.0,South,6.9,-,N/A,,Clear,170,2011-11-11 22:53:00
5:53 PM,57.9,33.1,39,30.18,10.0,South,6.9,-,N/A,,Clear,170,2011-11-11 23:53:00
6:53 PM,55.0,34.0,45,30.17,10.0,SSE,8.1,-,N/A,,Clear,160,2011-11-12 00:53:00
7:53 PM,51.1,36.0,56,30.19,10.0,South,5.8,-,N/A,,Clear,180,2011-11-12 01:53:00
8:53 PM,50.0,36.0,59,30.20,10.0,South,8.1,-,N/A,,Clear,190,2011-11-12 02:53:00
9:53 PM,48.9,36.0,61,30.20,10.0,South,3.5,-,N/A,,Clear,190,2011-11-12 03:53:00
10:53 PM,46.9,36.0,66,30.19,10.0,Calm,Calm,-,N/A,,Clear,0,2011-11-12 04:53:00
11:53 PM,43.0,35.1,74,30.18,10.0,SE,3.5,-,N/A,,Clear,140,2011-11-12 05:53:00